Location: Izdebno
(52.6670°N, 16.2170°E)
Time: 02:56:55
(UTC+02:00)

Transit 2A - Pass Details

Date: 25 February 2024
Orbit: 596 x 956 km, 66.7° (Epoch: 21 April)

Event Time Altitude Azimuth Distance (km) Brightness Sun altitude
Rises 22:32:47 0° 278° (W) 2,843 - -42.3°
Reaches altitude 10° 22:35:40 10° 299° (WNW) 1,955 - -42.5°
Maximum altitude 22:38:37 17° 342° (NNW) 1,553 - -42.7°
Drops below altitude 10° 22:41:39 10° 24° (NNE) 2,025 - -43.0°
Sets 22:44:44 0° 45° (NE) 2,991 - -43.2°
